"Pseudo-MPEC" for P10HL8V

Created 2018 Jun 17 15:18:10 UT using Find_Orb

Click here for an explanation of pseudo-MPECs

 
 Astrometry: 
     P10HL8V  C2018 06 12m.Astrometry?mb[rkc\/dm76hTD-YYn9#)s+LJH?XBy%*ZwuxZ^F51
     P10HL8V  C2018 06 12'uSo)QVb0%!3.t?ZDASV=R6Gggve!Z'(/4x8eT!vYcBQ\VOXd,upF51
     P10HL8V  C2018 06 12vC]cse.*m=rE0^T1Z3gw/Z@H8*T3*08m^:XlxLcqqs/K*C9L@DTBF51
     P10HL8V  C2018 06 12lFL4'*D?x\30N2\8].1F3piv/)@KgdRgx3LwR$Y?4.+qBYehl[WMF51
     P10HL8V ^C2018 06 14.53791320 09 53.386-33 53 18.94         20.00GVNEOCP568
     P10HL8V ^C2018 06 14.53886320 09 52.980-33 53 16.75         20.03GVNEOCP568
     P10HL8V ^C2018 06 14.53981220 09 52.573-33 53 14.58         20.01GVNEOCP568
     P10HL8V |C2018 06 15WAVR_[?#g,2S,62Ktredacted;1vNTU:B!uTN-O^_4t$k;dGwg3(807
     P10HL8V |C2018 06 158an46HCPDE%RM2'fKo:OaUn.KE/N2v0K7$9M]W%\]WcI_Ou.CJoy807
     P10HL8V |C2018 06 15rXJ=ARP=cUTAn\HQ9'3v^wFwu`JEU#rgM5.Z?KwtZriptt/!b`:_807
     P10HL8V KC2018 06 17`7?[QCZ-FRtNB].a._\BW%8RySabm_t]6=qwdJLlF/T-q9CnJH`HI19
     P10HL8V KC2018 06 17b0c$Wdp^=aU58s9de_M?Fy2jG78-9:p#see$N5BU+ZLFia_cT#(mI19
     P10HL8V KC2018 06 17+:*4*QKv8?k.vo]1klq%=nZWh`\1bPoP4V08OU!KJ8]o^Ttqi6NFI19
     P10HL8V |C2018 06 17%.`;skhS%BciZ8E5cIM?e.mhZ\X.]7pwRiC1-SpFgbEW%H^AJ45l807
     P10HL8V |C2018 06 17HKJ0.b`:o`8Gn3=nU%92*Jd]tSrf!x72`S8Fmb,_B-.0J?)p+h2U807
     P10HL8V |C2018 06 17,oP_B;t-'Z`s'.5gGXuUByXa]NlK:G1cwK+nf%!G:@A$0bKNEOCP807

Station data:
(568) Mauna Kea  (N19.826116 W155.472200)  US/Hawaii.
(807) Cerro Tololo Observatory, La Serena  (S30.169136 W70.805900)  Chile.
   1.5-m Ritchey-Chrétien.
(F51) Pan-STARRS 1, Haleakala  (N20.707235 W156.255910)  US/Hawaii.
   Observers N. Primak, A. Schultz, S. Watters, J. Thiel, T. Goggia. Measurer
   PS1 Science Consortium. 1.8-m Ritchey-Chrétien + CCD.
(I19) Observatorio El Gato Gris, Tanti  (S31.356805 W64.592890)  Argentina.

Orbital elements:  P10HL8V
   Perihelion 2018 Oct 15.489408 +/- 0.351 TT = 11:44:44 (JD 2458406.989408)
Epoch 2018 Jun 17.0 TT = JDT 2458286.5   Earth MOID: 0.1240   AutoNEOCP
M 196.43907 +/- 0.32                (J2000 ecliptic)
n   1.35747142 +/- 0.00126          Peri.  168.85443 +/- 0.057
a   0.80782183 +/- 0.000501         Node   273.69051 +/- 0.009
e   0.4661334 +/- 0.00389           Incl.   22.79618 +/- 0.41
P   0.73/265.19d           H 22.2   G  0.15   U  8.3  
q 0.43126901 +/- 0.00341    Q 1.18437464 +/- 0.00241
From 16 observations 2018 June 12-17; mean residual 0".29
Residuals in arcseconds: 
180612 F51  .03+  .05+    180614 568  .05-  .01-    180617 I19  .77-  .59-    
180612 F51  .08-  .02+    180615 807  .01+  .01-    180617 807  .39+  .29-    
180612 F51  .04+  .08-    180615 807  .08+  .03+    180617 807  .35+  .28-    
180612 F51  .03+  .01+    180615 807  .11+  .02+    180617 807  .51+  .15-    
180614 568  .06-  .01-    180617 I19  .02-  .52+    
180614 568  .05-  .00     180617 I19  .43-  .75+    

Ephemerides (geocentric):
Date (UTC) HH   RA              Dec         delta   r     elong  mag " sig PA
---- -- -- --  -------------   -----------  ------ ------ -----  --- ---- ---
2018 06 17 15  19 47 01.266   -31 34 06.65  .17910 1.1764 151.4 19.9  .23  60
2018 06 17 16  19 46 41.176   -31 31 56.00  .17888 1.1763 151.5 19.9  .24  59
2018 06 17 17  19 46 21.045   -31 29 44.82  .17866 1.1763 151.7 19.9  .25  57
2018 06 17 18  19 46 00.873   -31 27 33.10  .17844 1.1762 151.8 19.9  .26  56
2018 06 17 19  19 45 40.659   -31 25 20.84  .17822 1.1762 151.9 19.9  .27  54
2018 06 17 20  19 45 20.405   -31 23 08.04  .17800 1.1761 152.0 19.9  .28  53
2018 06 17 21  19 45 00.109   -31 20 54.69  .17778 1.1761 152.1 19.9  .29  52
2018 06 17 22  19 44 39.772   -31 18 40.80  .17757 1.1760 152.2 19.9  .30  51
2018 06 17 23  19 44 19.394   -31 16 26.37  .17735 1.1760 152.3 19.9  .31  50
2018 06 18 00  19 43 58.975   -31 14 11.39  .17713 1.1759 152.5 19.9  .32  49
2018 06 18 01  19 43 38.515   -31 11 55.86  .17691 1.1759 152.6 19.9  .33  47
2018 06 18 02  19 43 18.014   -31 09 39.78  .17670 1.1758 152.7 19.9  .34  46
2018 06 18 03  19 42 57.472   -31 07 23.15  .17648 1.1758 152.8 19.9  .36  45
2018 06 18 04  19 42 36.889   -31 05 05.96  .17627 1.1757 152.9 19.9  .37  45
2018 06 18 05  19 42 16.266   -31 02 48.21  .17605 1.1756 153.0 19.9  .38  44
2018 06 18 06  19 41 55.601   -31 00 29.91  .17584 1.1756 153.2 19.9  .39  43
2018 06 18 07  19 41 34.896   -30 58 11.05  .17562 1.1755 153.3 19.9  .40  42
2018 06 18 08  19 41 14.151   -30 55 51.63  .17541 1.1755 153.4 19.9  .41  41
2018 06 18 09  19 40 53.365   -30 53 31.65  .17520 1.1754 153.5 19.8  .42  40
2018 06 18 10  19 40 32.538   -30 51 11.10  .17499 1.1754 153.6 19.8  .44  39
2018 06 18 11  19 40 11.671   -30 48 49.98  .17477 1.1753 153.7 19.8  .45  38
2018 06 18 12  19 39 50.764   -30 46 28.30  .17456 1.1753 153.9 19.8  .46  38
2018 06 18 13  19 39 29.816   -30 44 06.05  .17435 1.1752 154.0 19.8  .47  37
2018 06 18 14  19 39 08.828   -30 41 43.23  .17414 1.1751 154.1 19.8  .49  36
2018 06 18 15  19 38 47.800   -30 39 19.83  .17393 1.1751 154.2 19.8  .50  35
2018 06 18 16  19 38 26.732   -30 36 55.86  .17372 1.1750 154.3 19.8  .51  35
2018 06 18 17  19 38 05.623   -30 34 31.32  .17351 1.1750 154.4 19.8  .53  34
2018 06 18 18  19 37 44.475   -30 32 06.20  .17330 1.1749 154.6 19.8  .54  33
2018 06 18 19  19 37 23.287   -30 29 40.50  .17310 1.1749 154.7 19.8  .55  32
2018 06 18 20  19 37 02.058   -30 27 14.21  .17289 1.1748 154.8 19.8  .57  32
2018 06 18 21  19 36 40.790   -30 24 47.35  .17268 1.1747 154.9 19.8  .58  31
2018 06 18 22  19 36 19.483   -30 22 19.90  .17247 1.1747 155.0 19.8  .59  30
2018 06 18 23  19 35 58.135   -30 19 51.87  .17227 1.1746 155.2 19.8  .61  30
2018 06 19 00  19 35 36.749   -30 17 23.25  .17206 1.1746 155.3 19.8  .62  29
2018 06 19 01  19 35 15.322   -30 14 54.04  .17186 1.1745 155.4 19.8  .64  28
2018 06 19 02  19 34 53.856   -30 12 24.25  .17165 1.1745 155.5 19.7  .65  28
2018 06 19 03  19 34 32.351   -30 09 53.86  .17145 1.1744 155.6 19.7  .67  27
2018 06 19 04  19 34 10.807   -30 07 22.87  .17125 1.1743 155.8 19.7  .68  26
2018 06 19 05  19 33 49.223   -30 04 51.30  .17104 1.1743 155.9 19.7  .70  26
2018 06 19 06  19 33 27.600   -30 02 19.12  .17084 1.1742 156.0 19.7  .71  25
2018 06 19 07  19 33 05.938   -29 59 46.35  .17064 1.1742 156.1 19.7  .73  24
2018 06 19 08  19 32 44.238   -29 57 12.99  .17044 1.1741 156.2 19.7  .74  24
2018 06 19 09  19 32 22.498   -29 54 39.02  .17024 1.1740 156.4 19.7  .76  23
2018 06 19 10  19 32 00.720   -29 52 04.45  .17004 1.1740 156.5 19.7  .78  23
2018 06 19 11  19 31 38.903   -29 49 29.27  .16984 1.1739 156.6 19.7  .79  22
2018 06 19 12  19 31 17.047   -29 46 53.49  .16964 1.1739 156.7 19.7  .81  21
2018 06 19 13  19 30 55.153   -29 44 17.11  .16944 1.1738 156.9 19.7  .83  21
2018 06 19 14  19 30 33.220   -29 41 40.11  .16924 1.1737 157.0 19.7  .85  20